Regional Weather Roundup
Issued by NWS

Home | Current Version | Previous Version | Graphics & Text | Print | Product List | Glossary On
Versions: 1 2 3 4 5 6 7 8 9 10 11 12 13 14 15 16 17 18 19 20 21 22 23 24 25 26 27 28 29 30 31 32 33 34 35 36 37 38 39 40 41 42 43 44 45 46 47 48 49 50
000
ASUS43 KBIS 270210
RWRND

NORTH DAKOTA REGIONAL WEATHER ROUNDUP
NATIONAL WEATHER SERVICE BISMARCK ND
900 PM CDT MON SEP 26 2016

NOTE: "FAIR" INDICATES FEW OR NO CLOUDS BELOW 12,000 FEET WITH NO
SIGNIFICANT WEATHER AND/OR OBSTRUCTIONS TO VISIBILITY.


NDZ001>003-009>011-017-270300-
NORTHWEST NORTH DAKOTA

CITY           SKY/WX    TMP DP  RH WIND       PRES   REMARKS
WILLISTON      CLEAR     51  41  68 NW5       30.09S
MINOT          CLEAR     57  37  47 W9        30.05S
MINOT AFB      CLEAR     48  38  70 NW10      30.04S
$$

NDZ018>021-031>035-040>046-270300-
SOUTHWEST NORTH DAKOTA

CITY           SKY/WX    TMP DP  RH WIND       PRES   REMARKS
BISMARCK       CLEAR     54  38  54 W6        30.08S
DICKINSON      CLEAR     50  38  63 W5        30.11F
GARRISON         N/A     48  38  68 NW8       30.07S
HETTINGER ARPT CLOUDY    47  39  74 CALM      30.16S
$$

NDZ004>008-012>016-024-026-027-054-270300-
NORTHEAST NORTH DAKOTA

CITY           SKY/WX    TMP DP  RH WIND       PRES   REMARKS
GRAND FORKS    CLEAR     48  38  68 NW8       29.93R
GRND FRKS AFB  CLEAR     51  35  53 NW7       29.94R
DEVILS LAKE    CLEAR     50  36  58 NW9       30.00R
$$

NDZ022-023-025-028>030-036>039-047>053-270300-
SOUTHEAST NORTH DAKOTA

CITY           SKY/WX    TMP DP  RH WIND       PRES   REMARKS
FARGO          CLEAR     52  31  44 W9        29.95R
JAMESTOWN      CLEAR     49  38  65 NW8       30.00S
$$





USA.gov is the U.S. government's official web portal to all federal, state and local government web resources and services.